FREGAT R/B (45609 NORAD) Tracking and Keplerian Element Data

This shows tracking and keplerian element data for the satellite.

Feedback or suggestion? Click here.




ElementValue
Catalog45609
NameFREGAT R/B
Epoch Orbit45
Epoch Day166.20590804
Epoch Year2020
RAAN300.4523
Inclination63.8685
Eccentricity0.6953651
Argument of Perigee269.9604
Mean Anonmoly17.3734
Mean Motion2.01380407
Decay Rate-4.45E-06
L11 45609U 20031B 20166.20590804 -.00000445 00000-0 00000+0 0 9996
L22 45609 63.8685 300.4523 6953651 269.9604 17.3734 2.01380407 459

Live tracking and technical data element details for FREGAT R/B (NORAD 45609). FREGAT R/B can be tracked NOW for your location showing map with azimuth and elevation plus other details from your city location.

Track the satellite on the map from your city or location and see movement details for azimuth, elevation, latitude, longitude, range, height, and movement on the map or in text.







IsCatalogInMostPopularTable: catalog: 45609, numindb: 8
Update: records affected: 1



GetName: 45609 FREGAT R/B

Hit Count: updated at: Wed, 08 Jul 2020 03:34:37 GMT